Location: Allisons_Woods
(35.8920°N, 81.8170°W)
Time: 21:05:15
(UTC-05:00)

Daily predictions for brighter satellites

Satellite Brightness Start Highest point End
(mag) Time Altitude Azimuth Time Altitude Azimuth Time Altitude Azimuth
IRAS Rocket 4.2 18:03:42 10° SSE 18:09:13 75° ENE 18:14:48 10° N
NOSS 3 (A) 4.3 18:07:54 10° SSW 18:10:38 82° ESE 18:13:33 10° NNE
Meteor 2-2 Rocket 4.5 18:05:20 10° N 18:10:52 49° ENE 18:16:17 10° SSE
ASTRO E2 3.6 18:07:30 10° WSW 18:11:18 43° S 18:15:05 10° ESE
METEOR-M 4.2 18:07:21 10° SSE 18:12:35 58° ENE 18:17:50 10° N
Cosmos 2218 Rocket 4.0 18:06:53 10° N 18:13:01 67° E 18:19:07 10° SSE
Meteor 2-10 4.4 18:08:10 10° NNW 18:13:12 70° W 18:18:22 10° S
Cosmos 1743 Rocket 4.5 18:11:44 10° SSE 18:15:24 27° E 18:19:03 10° NNE
Cosmos 44 3.9 18:12:10 10° SW 18:16:18 48° WNW 18:20:35 10° NNE
NOSS 3-4 (A) 4.0 18:09:29 10° NNW 18:16:29 56° NE 18:23:56 10° SE
NOSS 3-4 (C) 4.0 18:09:36 10° NNW 18:16:35 56° NE 18:24:02 10° SE
SL-14 R/B 4.1 18:13:00 10° SSW 18:16:54 55° W 18:20:46 10° N
Cosmos 1484 Rocket 4.2 18:14:39 10° S 18:18:15 42° W 18:21:50 10° NNW
Cosmos 1328 Rocket 4.2 18:15:53 10° NNE 18:19:47 31° ENE 18:23:37 10° SE
Cosmos 371 Rocket 3.9 18:19:17 10° SSE 18:23:40 37° ESE 18:28:05 10° NE
Cosmos 2228 Rocket 4.0 18:20:18 10° NNE 18:24:14 27° ENE 18:28:08 10° SE
SMAP 4.1 18:21:26 10° S 18:25:57 51° W 18:30:30 10° NNW
ISS -1.6 18:28:16 10° SSE 18:29:51 13° SE 18:31:10 11° ESE
CZ-4 R/B 4.4 18:27:47 10° SSE 18:31:54 84° ENE 18:36:02 10° N
SEDSat Delta rocket 4.4 18:26:11 10° WSW 18:32:51 58° S 18:38:57 11° E
Cosmos 1766 Rocket 4.0 18:30:21 10° SSW 18:34:38 66° W 18:38:57 10° N
Cosmos 2098 Rocket 4.1 18:29:14 10° N 18:34:54 54° E 18:41:42 10° SSE
SL-08 R/B 4.4 18:28:43 10° N 18:34:54 82° E 18:41:00 10° S
Cosmos 2058 3.1 18:34:13 10° SSE 18:38:14 49° E 18:42:18 10° NNE
Cosmos 1570 Rocket 4.3 18:37:26 10° S 18:42:29 46° ESE 18:47:31 10° NNE
H-2A R/B 3.6 18:39:50 10° SE 18:43:04 27° ENE 18:46:21 10° NNE
COSMOS 2406 3.2 18:39:19 10° SSW 18:45:02 88° ESE 18:50:47 10° NNE
Cosmos 2366 rocket 4.3 18:39:33 10° N 18:45:45 73° W 18:51:51 10° S
Meteor 1-11 4.3 18:40:25 10° S 18:46:00 85° W 18:51:41 10° N
Cosmos 1833 Rocket 4.2 18:44:04 10° SE 18:47:10 15° E 18:47:19 15° E
Meteor 1-27 4.2 18:42:05 10° N 18:47:49 70° E 18:53:35 10° SSE
Cosmos 1455 2.4 18:44:39 10° N 18:48:20 45° E 18:52:00 10° SSE
Cosmos 1151 Rocket 3.4 18:44:21 10° N 18:48:31 41° E 18:52:38 10° SSE
CZ-4 R/B 3.3 18:46:28 10° SSW 18:50:20 36° W 18:54:16 10° NNW
SKYMED 2 4.2 18:46:31 10° N 18:50:47 59° WNW 18:55:03 10° SSW
Cosmos 1821 Rocket 4.4 18:45:14 10° N 18:50:59 39° ENE 18:56:45 10° SE
Cosmos 1346 Rocket 2.7 18:47:31 10° N 18:51:26 88° W 18:55:18 10° S
YAOGAN 1 3.5 18:49:18 10° S 18:53:30 50° W 18:57:43 10° NNW
Cosmos 1626 3.5 18:50:32 10° SSW 18:54:03 41° W 18:57:35 10° N
Hubble Space Telescope 3.0 18:54:37 10° SSW 18:57:02 15° SSE 18:58:58 12° SE
NOAA 12 4.0 18:55:06 10° SSE 19:00:20 89° ENE 19:05:37 10° NNW
SL-27 R/B 3.1 18:57:31 10° SSE 19:00:38 33° ESE 19:00:56 32° E
Nadezhda 3 Rocket 4.0 18:55:50 10° S 19:02:08 83° E 19:08:32 10° N
FengYun 1-2 T 4.4 18:56:58 10° SE 19:02:21 49° ENE 19:07:44 10° N
Cosmos 2151 3.2 19:04:13 10° SSW 19:08:28 73° W 19:12:46 10° N
ERBS 4.3 19:06:09 10° N 19:07:28 16° N 19:07:28 16° N
Cosmos 304 Rocket 4.2 19:08:53 10° S 19:13:17 38° ESE 19:14:11 35° ENE
ALOS 3.2 19:09:49 10° S 19:14:20 50° W 19:18:53 10° NNW
EO 1 Del DPAF 4.2 19:10:39 10° N 19:14:20 47° WNW 19:18:00 10° SSW
Thor Agena Rocket 3.7 19:12:20 18° NNE 19:16:03 48° E 19:21:01 10° S
ERS-2 2.1 19:12:38 10° SSE 19:16:18 84° WSW 19:20:01 10° NNW
Cosmos 909 Rocket 3.9 19:15:06 10° NNW 19:21:43 73° ENE 19:27:57 10° SE
Cosmos 1934 Rocket 4.1 19:19:02 10° N 19:25:17 55° E 19:31:29 10° SSE
Cosmos 1515 Rocket 4.2 19:24:15 10° NNW 19:28:30 56° W 19:32:43 10° S
CZ-4C R/B 1.9 19:24:42 10° SSW 19:29:40 66° ESE 19:31:21 43° NE
Tiangong 1 2.9 19:29:42 10° W 19:31:09 23° WSW 19:31:09 23° WSW
Cosmos 1340 3.4 19:28:48 10° N 19:36:56 - S 19:31:20 40° N
Cosmos 1605 Rocket 4.3 19:27:56 10° N 19:40:33 - SSE 19:32:52 40° ENE
OAO 3 Rocket 4.3 19:33:02 10° W 19:37:19 36° SSW 19:39:05 26° SSE
Lacrosse 5 1.8 19:34:38 10° SW 19:39:44 83° NW 19:40:55 53° NNE
ASTRO E2 4.0 19:47:53 10° WSW 19:51:07 33° SSW 19:51:07 33° SSW
Cosmos 468 Rocket 4.3 19:49:27 10° SSW 19:54:31 61° WNW 19:56:34 35° N
Cosmos 1898 Rocket 3.5 19:54:33 10° NNW 19:59:21 73° N 19:59:21 73° N
Cosmos 1814 Rocket 3.9 19:54:44 10° SSW 19:59:56 85° S 19:59:56 85° S
ISS -1.0 20:02:50 10° WSW 20:03:52 18° WSW 20:03:52 18° WSW
Cosmos 1763 Rocket 3.8 20:02:27 10° SSW 20:06:37 59° SSW 20:06:37 59° SSW
Cosmos 2082 Rocket 2.4 20:02:10 10° SSW 20:06:43 59° S 20:06:43 59° S
SEDSat Delta rocket 4.3 20:12:49 10° W 20:19:05 52° SSW 20:19:05 52° SSW
Cosmos 1833 Rocket 3.5 20:24:56 10° SSW 20:29:06 47° WSW 20:29:06 47° WSW
Hubble Space Telescope 3.9 20:34:11 10° SW 20:34:20 11° SW 20:34:20 11° SW
